EHI
0 0 0 0 0 0 0 0 0 0 0 0 0 0 0 0 0 0 0 0 0 0 0 0 0 0 0 0 0 0 0 0 0 0 0 0 0 0 0 0 0 0 0 0
0 0 0 0 0 0 0 0 0 0 0 0 0 0 0 0 0 0 0 0 0 0 0 0 0 0 0 0 0 0 0 0 0 0 0 0 0 0 0 0 0 0 0 0
0 0 0 0 0 0 0 0 0 0 0 0 0 0 0 0 0 0 0 0 0 0 0 0 0 0 0 0 0 0 0 0 0 0 0 0 0 0 0 0 0 0 0 0
0 0 0 0 0 0 0 0 0 0 0 0 0 0 0 0 0 0 0 0 0 0 0 0 0 0 0 0 0 0 0 0 0 0 0 0 0 0 0 0 0 0 0 0
0 0 0 0 0 0 0 0 0 0 0 0 0 0 0 0 0 0 0 0 0 0 0 0 0 0 0 0 0 0 0 0 0 0 0 0 0 0 0 0 0 0 0 0
0 0 0 0 0 0 0 0 0 0 0 0 0 0 0 0 0 0 0 0 0 0 0 0 0 0 0 0 0 0 0 0 0 0 0 0 0 0 0 0 0 0 0 0
0 0 0 0 0 0 0 0 0 0 0 0 0 0 0 0 0 0 0 0 0 0 0 0 0 0 0 0 0 0 0 0 0 0 0 0 0 0 0 0 0 0 0 0
0 0 0 0 0 0 0 0 0 0 0 0 0 0 0 0 0 0 0 0 0 0 0 0 0 0 0 0 0 0 0 0 0 0 0 0 0 0 0 0 0 0 0 0
0 0 0 0 0 0 0 0 0 0 0 0 0 0 0 0 0 0 0 0 0 0 0 0 0 0 0 0 0 0 0 0 0 0 0 0 0 0 0 0 0 0 0 0
0 0 0 0 0 0 0 0 0 0 0 0 0 0 0 0 0 0 0 0 0 0 0 0 0 0 0 0 0 0 0 0 0 0 0 0 0 0 0 0 0 0 0 0
0 0 0 0 0 0 0 0 0 0 0 0 0 0 0 0 0 0 0 0 0 0 0 0 0 0 0 0 0 0 0 0 0 0 0 0 0 0 0 0 0 0 0 0
0 0 0 0 0 0 0 0 0 0 0 0 0 0 0 0 0 0 0 0 0 0 0 0 0 0 0 0 0 0 0 0 0 0 0 0 0 0 0 0 0 0 0 0
0 0 0 0 0 0 0 0 0 0 0 0 0 0 0 0 0 0 0 0 0 0 0 0 0 0 0 0 0 0 0 0 0 0 0 0 0 0 0 0 0 0 0 0
0 0 0 0 0 0 0 0 0 0 0 0 0 0 0 0 0 0 0 0 0 0 0 0 0 0 0 0 0 0 0 0 0 0 0 0 0 0 0 0 0 0 0 0
0 0 0 0 0 0 0 0 0 0 0 0 0 0 0 0 0 0 0 0 0 0 0 0 0 0 0 0 0 0 0 0 0 0 0 0 0 0 0 0 0 0 0 0
0 0 0 0 0 0 0 0 0 0 0 0 0 0 0 0 0 0 0 0 0 0 0 0 0 0 0 0 0 0 0 0 0 0 0 0 0 0 0 0 0 0 0 0
0 0 0 0 0 0 0 0 0 0 0 0 0 0 0 0 0 0 0 0 0 0 0 0 0 0 0 0 0 0 0 0 0 0 0 0 0 0 0 0 0 0 0 0
0 0 0 0 0 0 0 0 0 0 0 0 0 0 0 0 0 0 0 0 0 0 0 0 0 0 0 0 0 0 0 0 0 0 0 0 0 0 0 0 0 0 0 0
0 0 0 0 0 0 0 0 0 0 0 0 0 0 0 0 0 0 0 0 0 0 0 0 0 0 0 0 0 0 0 0 0 0 0 0 0 0 0 0 0 0 0 0
0 0 0 0 0 0 0 0 0 0 0 0 0 0 0 0 0 0 0 0 0 0 0 0 0 0 0 0 0 0 0 0 0 0 0 0 0 0 0 0 0 0 0 0
0 0 0 0 0 0 0 0 0 0 0 0 0 0 0 0 0 0 0 0 0 0 0 0 0 0 0 0 0 0 0 0 0 0 0 0 0 0 0 0 0 0 0 0
0 0 0 0 0 0 0 0 0 0 0 0 0 0 0 0 0 0 0 0 0 0 0 0 0 0 0 0 0 0 0 0 0 0 0 0 0 0 0 0 0 0 0 0
0 0 0 0 0 0 0 0 0 0 0 0 0 0 0 0 0 0 0 0 0 0 0 0 0 0 0 0 0 0 0 0 0 0 0 0 0 0 0 0 0 0 0 0
0 0 0 0 0 0 0 0 0 0 0 0 0 0 0 0 0 0 0 0 0 0 0 0 0 0 0 0 0 0 0 0 0 0 0 0 0 0 0 0 0 0 0 0
0 0 0 0 0 0 0 0 0 0 0 0 0 0 0 0 0 0 0 0 0 0 0 0 0 0 0 0 0 0 0 0 0 0 0 0 0 0 0 0 0 0 0 0
0 0 0 0 0 0 0 0 0 0 0 0 0 0 0 0 0 0 0 0 0 0 0 0 0 0 0 0 0 0 0 0 0 0 0 0 0 0 0 0 0 0 0 0
Wind_Speed
3 4 8 15 17 11 6 9 13 13 10 8 15 21 18 16 17 20 18 17 21 22 23 18 12 8 9 11 14 17 18 17 14 13 13 12 14 12 11 11 12 13 11 11
3 8 16 9 2 4 6 11 16 16 11 9 16 23 15 14 18 22 23 22 23 19 18 17 13 5 7 10 13 15 17 17 18 16 14 8 7 6 6 5 7 10 11 12
12 8 7 7 6 8 9 10 12 13 8 6 12 15 9 11 13 16 19 21 20 17 19 18 13 6 7 10 12 13 16 16 18 14 8 6 5 4 5 7 9 12 14 14
8 6 3 6 8 11 14 13 14 12 8 7 3 16 5 10 10 13 18 17 16 13 11 11 11 9 9 11 10 11 12 14 15 15 15 17 14 13 14 12 11 11 12 13
8 4 4 8 12 11 13 6 6 5 5 6 4 11 10 6 8 13 14 14 11 8 8 10 11 11 10 7 5 7 9 11 13 15 17 17 14 10 6 5 9 9 8 10
7 4 7 9 6 7 5 2 3 3 1 8 8 10 11 6 9 10 9 7 7 8 10 11 11 9 8 4 1 4 8 9 11 14 15 16 14 11 10 9 11 10 7 9
5 4 5 4 2 2 4 3 4 5 2 10 4 8 13 9 8 6 7 9 9 8 9 11 13 13 10 5 0 3 7 8 10 12 14 15 14 14 15 13 14 12 9 10
4 8 7 7 9 7 6 9 8 7 8 8 3 12 12 8 7 7 8 9 8 7 8 10 10 10 9 5 1 3 6 7 9 12 12 11 12 10 10 11 11 13 12 12
7 9 4 5 6 8 7 8 6 6 6 10 11 11 13 5 8 9 8 5 6 7 9 11 12 11 9 6 4 3 4 5 7 9 10 10 11 11 10 10 9 10 9 9
4 9 6 3 1 3 6 5 4 5 5 8 10 10 13 7 7 7 7 7 9 9 11 13 14 14 12 9 7 5 5 5 5 6 8 8 10 11 9 9 13 12 11 11
3 6 7 3 8 8 6 5 6 5 5 6 7 11 9 9 8 7 8 11 13 15 15 15 15 14 14 13 10 8 7 7 7 6 7 8 8 8 8 9 12 13 12 14
7 7 9 10 8 5 7 9 9 8 10 9 10 13 17 18 14 11 12 14 16 17 16 15 14 15 16 16 15 13 10 8 8 8 8 9 9 8 10 13 12 12 13 15
6 7 7 5 4 1 3 4 5 7 8 12 17 12 7 12 16 17 16 16 16 17 18 18 17 17 17 15 14 13 12 11 10 9 9 10 10 11 14 15 12 12 13 14
9 7 11 13 10 6 7 7 5 7 10 12 13 17 17 15 13 14 14 14 15 16 17 18 18 17 17 16 15 14 13 12 13 13 10 11 12 14 16 14 12 13 14 15
3 9 11 14 13 10 10 12 13 16 17 17 19 21 10 7 9 10 11 13 16 18 18 18 17 17 18 18 18 17 16 15 15 15 14 13 12 12 13 13 13 13 15 16
0 4 4 9 11 11 16 18 21 22 18 15 16 4 7 4 6 8 7 11 13 14 15 15 15 16 17 18 18 18 18 17 16 16 15 14 12 11 11 12 12 13 14 14
3 4 4 7 6 6 11 13 12 7 2 2 1 2 2 4 9 8 4 7 11 12 11 12 13 14 14 15 15 17 16 16 15 15 15 15 13 12 11 10 11 13 14 14
8 6 5 4 2 11 8 1 1 4 4 4 4 3 5 6 7 7 4 4 8 9 9 9 10 12 13 14 14 15 15 14 14 13 14 14 14 13 11 9 10 11 10 13
14 10 6 4 7 10 2 2 2 4 5 5 4 5 7 7 6 5 4 4 6 7 7 8 8 10 11 12 13 15 16 15 15 14 14 15 15 15 12 10 10 9 9 11
3 8 8 6 6 9 6 5 5 3 5 6 4 6 8 5 6 6 5 6 7 8 7 8 8 8 10 11 11 13 15 15 16 16 17 16 15 15 14 12 9 7 8 9
1 0 5 7 7 10 6 4 1 2 6 6 7 9 9 9 10 10 10 10 9 9 10 9 8 9 9 9 10 13 15 15 15 16 17 17 15 15 14 11 7 6 6 7
5 3 4 4 4 10 4 1 3 8 6 6 9 10 12 13 13 12 13 13 12 11 12 10 9 12 12 9 8 13 15 13 14 16 17 18 17 14 11 11 8 6 7 8
6 8 7 9 10 7 5 8 9 7 8 10 11 12 12 13 13 13 13 14 14 14 14 10 10 14 16 10 7 14 15 12 14 16 18 18 18 15 11 11 10 7 8 8
7 6 6 8 13 13 14 13 12 11 13 13 13 12 10 12 13 14 13 14 15 14 13 11 11 14 18 13 10 11 13 11 13 17 18 17 17 17 13 10 10 9 10 10
11 7 8 13 15 12 13 15 14 13 12 11 10 8 8 8 13 13 13 14 15 16 15 11 11 15 19 17 15 11 9 10 15 18 18 16 15 16 14 11 11 12 12 12
11 11 12 15 15 12 11 9 8 8 9 7 6 6 5 6 11 13 15 16 16 16 15 15 15 17 18 17 18 13 9 10 15 18 17 13 12 13 13 12 11 20 20 21
Wind_Direction
123 125 203 217 212 223 246 262 265 260 270 281 265 266 266 270 278 276 268 263 267 270 271 276 272 245 223 215 207 205 200 196 182 183 185 185 193 191 191 192 186 182 176 172
87 225 226 229 217 244 264 274 275 277 267 263 273 274 269 251 252 259 267 269 268 270 283 283 284 264 227 219 211 206 201 192 188 191 191 188 176 180 185 174 173 177 173 173
205 231 219 217 236 245 241 236 253 262 301 301 296 283 230 248 247 258 262 265 271 273 278 289 310 302 245 232 216 207 200 193 191 180 162 135 113 106 153 181 187 188 182 179
240 267 213 197 221 218 258 236 247 274 302 287 313 297 207 227 251 260 262 266 271 279 293 301 304 296 260 242 220 205 193 189 184 175 177 177 185 190 192 190 189 184 183 179
244 228 194 214 227 210 238 267 263 268 257 283 192 263 285 197 238 258 260 265 282 307 311 307 305 298 288 273 225 194 181 182 180 182 186 188 197 198 169 158 165 172 178 179
251 232 205 218 236 216 228 358 346 47 66 277 205 219 282 192 211 243 266 293 310 315 320 320 319 319 316 328 256 173 169 177 179 186 188 193 194 179 166 171 175 177 180 185
281 250 238 201 233 191 144 129 337 325 295 255 212 228 255 238 236 236 276 292 303 316 324 327 332 335 331 331 322 172 170 176 180 189 196 198 197 190 189 183 183 181 181 192
266 272 227 202 199 184 183 166 185 230 248 276 233 245 255 238 261 268 268 276 296 316 326 334 339 337 333 324 241 190 188 187 187 195 201 201 199 198 198 188 186 188 192 194
221 256 250 205 205 166 171 205 205 209 258 278 266 270 293 249 277 279 279 285 306 320 333 347 356 356 348 337 304 249 223 216 206 206 206 205 203 204 199 187 184 191 190 180
217 266 265 276 108 242 194 172 126 172 215 240 261 269 268 293 282 293 306 313 318 328 350 5 14 10 4 353 337 324 298 272 249 230 224 223 218 214 200 185 194 194 188 179
182 248 281 283 214 200 171 180 193 199 202 220 243 258 269 309 319 324 321 330 343 359 10 18 19 18 18 13 2 343 323 307 292 269 251 244 235 222 212 208 205 198 189 185
187 220 248 245 243 219 208 212 203 224 236 231 251 261 283 297 323 359 3 7 16 20 20 18 16 16 17 14 9 1 344 321 294 274 257 247 240 222 218 221 213 202 196 192
191 221 252 254 275 125 234 257 260 271 268 258 264 270 302 350 20 29 27 23 18 14 11 9 8 7 6 3 359 357 352 343 326 298 268 253 239 229 227 226 218 208 203 198
286 242 248 261 273 295 275 273 277 275 272 273 267 284 308 334 5 17 18 15 12 9 6 3 359 356 354 352 350 347 343 343 338 328 302 274 252 238 234 228 216 209 205 204
237 259 263 271 279 281 282 283 280 271 268 270 276 280 312 21 10 359 9 12 9 3 358 355 349 346 344 344 344 342 340 341 337 334 326 304 279 256 242 231 220 211 208 207
271 266 276 272 269 269 272 268 267 271 270 265 269 274 37 359 356 354 3 5 360 352 346 342 340 340 339 338 336 336 336 336 333 330 327 321 306 281 257 242 227 216 211 206
230 233 252 260 276 307 258 243 246 245 334 337 255 106 311 333 342 334 321 345 342 338 334 331 330 331 329 329 329 329 328 327 325 323 323 326 320 304 282 258 235 223 214 205
223 217 238 265 334 246 242 111 121 144 125 111 120 208 250 266 278 267 241 317 321 320 317 314 317 320 319 319 322 324 323 321 319 317 320 324 321 311 296 272 247 233 218 212
218 215 207 207 233 261 202 208 178 192 205 184 192 245 258 273 284 248 226 288 288 286 290 295 296 300 305 309 317 321 320 320 320 319 321 323 320 311 300 278 254 235 222 220
202 215 222 212 218 238 217 207 234 179 248 213 228 263 263 277 288 273 273 286 289 284 283 284 284 286 292 301 313 314 314 317 319 321 320 317 313 304 294 279 259 235 223 224
346 131 218 224 234 260 238 220 93 157 255 233 257 260 248 238 244 264 285 291 282 281 284 283 281 285 289 298 306 305 306 309 313 316 314 311 305 298 291 281 259 231 217 213
206 216 219 170 205 259 229 237 222 230 246 257 263 256 249 247 254 265 275 280 283 284 285 284 288 293 294 293 293 296 297 305 311 311 309 308 305 298 289 275 256 231 212 208
219 203 194 194 218 241 234 248 256 256 272 277 269 261 252 255 262 269 275 280 283 285 287 291 292 293 294 292 284 292 300 310 310 308 306 305 304 295 280 266 253 230 215 213
238 218 223 249 258 260 261 264 269 270 269 270 266 261 249 251 265 276 281 284 287 289 288 289 286 287 290 294 291 289 300 308 306 302 300 299 298 294 280 259 245 232 219 215
223 207 226 248 260 260 256 256 261 264 260 259 258 250 247 259 276 284 287 286 287 288 289 286 283 285 288 295 295 296 301 304 300 296 293 292 288 286 281 261 243 236 229 221
222 218 233 251 255 252 257 252 255 265 271 275 281 288 294 285 285 288 284 285 287 288 292 293 292 291 293 296 295 297 295 289 290 291 290 287 286 286 282 272 260 247 240 237